STARLINK-11635, 63193

Orbit data source: Space-Track

STARLINK-11635, 63193 is a payload satellite owned by SpaceX/Seattle (US) in LEO that was launched on Thu, 13 Mar 2025 UTC via an FALCON 9 launch vehicle from the Air Force Eastern Test Range (AFETR). Payload-class satellites include a variety of spacecraft equipped with specific instruments for various scientific and technological missions. These include communications satellites like Starlink; space stations such as the ISS; scientific satellites like the Hubble; Earth observation satellites from companies like Planet Labs, Umbra, and HawkEye 360; GPS; miniature CubeSats for education and research; and military/defense satellites.

Loading next visibility...
Identifier
63193, 2025-048L
Orbit
LEO
Country
Flag of USUS
Related business
Manufacturer
SpaceX/Seattle
Mission
Operational Commercial Communications
Bus & Motor
STARLINK V2MD, Unknown motor
Mass
960 kg wet, ~910 kg dry
Launch date (UTC)
2025-03-13 (1 year ago)
Launch vehicle
FALCON 9
Launch site
Air Force Eastern Test Range (AFETR)
Object type
Payload
Rocket body
Debris
Shape & HBR
Box + 2 Pan, 18.1 m
Radar Cross Section
36.964 m², Large (>1 m²)

Expand to show TLE details & history
Last TLE update: 19 hours ago

TLE from 19 hours ago
0 STARLINK-11635
1 63193U 25048L   26171.11768876  .00096828  00000-0  74820-3 0  9999
2 63193  42.9967  62.2095 0002193  27.4980 332.6003 15.70874946 74638
Epoch: 2026-06-20T02:49Z
TLE epoch observation values (Epoch: 2026-06-20T02:49:28.308Z)
Latitude
-0.00006°
Longitude
111.50458°
Altitude
354.855 km
Speed
7.699 km/s
True Right ascension
04h 08m 50s
True Declination
0° 00' 00"
Sunlit
Object was in daylight at epoch
Visualization orbit readout
Latitude
Unknown
Longitude
Unknown
Altitude
Unknown
Speed
Unknown
Apparent Right ascension
Unknown
Apparent Declination
Unknown
Sunlit
N/A
Visualization observer readout
Local Sidereal Time
08:42:13
Azimuth
Unknown
Elevation
Unknown
Doppler factor
Unknown
Orbital elements
Apogee altitude
359.855 km
Perigee altitude
356.9 km
Semi-major axis
6,736.514 km
Eccentricity
0.00022
Inclination
42.9967°
RAAN
62.2095°
Arg. of periapsis
27.498°
True anomaly
332.58873°
Mean anomaly
332.6003°
Eccentric anomaly
332.59452°
Mean motion
3.92546 °/min
Orbital period
91.71 mins
BSTAR
0.0007482
Loading maneuver chart data...
Computing Atmospheric mass density...
Loading historical data...
Loading historical data...
Loading historical data...
Loading historical data...
Loading historical data...
Loading historical data...
Loading historical data...

Documentation

Showing up to 5 results
|